OBERSTADN Weather Reports


Display with metric or nautical units.
time (UTC)temp
F
wind
direction
speed
MPH
gust
MPH
rain 1hr
in
rain 24hr
in
rain mn
in
humidity
%
barometer
mb
20260507140210 58 290 11.0 0.0 0.00 0.00 0.09 75 1015.0
20260507133210 55 295 8.0 0.0 0.00 0.00 0.09 80 1015.3
20260507130210 55 280 10.0 0.0 0.00 0.00 0.09 83 1015.1
20260507123210 54 179 9.0 0.0 0.00 0.00 0.08 84 1015.1
20260507120211 54 233 4.0 0.0 0.00 0.00 0.08 84 1015.0
20260507113210 55 254 9.0 0.0 0.00 0.00 0.06 82 1015.0
20260507110210 53 215 6.0 0.0 0.00 0.00 0.06 87 1014.9
20260507103216 52 324 5.0 0.0 0.00 0.00 0.05 84 1015.2
20260507100212 53 275 5.0 0.0 0.00 0.00 0.05 87 1015.0
20260507093211 52 239 7.0 0.0 0.00 0.00 0.04 86 1014.8
20260507090211 52 250 9.0 0.0 0.00 0.00 0.04 85 1014.5
20260507083212 52 250 11.0 0.0 0.00 0.00 0.04 89 1014.3
20260507080211 50 240 13.0 0.0 0.00 0.00 0.04 91 1014.2
20260507073212 49 165 11.0 0.0 0.00 0.00 0.03 92 1014.0
20260507070212 48 218 11.0 0.0 0.00 0.00 0.02 93 1013.7
20260507063211 47 241 10.0 0.0 0.00 0.00 0.02 93 1013.4
20260507060211 47 214 8.0 0.0 0.00 0.00 0.02 93 1013.2
20260507053211 47 235 8.0 0.0 0.00 0.00 0.01 94 1013.0
20260507050213 46 253 7.0 0.0 0.00 0.00 0.00 93 1012.7
20260507043211 44 270 2.0 0.0 0.00 0.00 0.00 93 1012.3
20260507040216 44 348 3.0 0.0 0.00 0.00 0.00 92 1012.0
20260507033211 44 249 3.0 0.0 0.00 0.00 0.00 92 1011.7
20260507030211 44 161 4.0 0.0 0.00 0.00 0.00 92 1011.4
20260507023211 44 190 6.0 0.0 0.00 0.00 0.00 92 1011.4
20260507020211 44 202 8.0 0.0 0.00 0.00 0.00 92 1011.3
20260507013212 44 199 8.0 0.0 0.00 0.00 0.00 92 1011.3
20260507010211 44 233 7.0 0.0 0.00 0.00 0.00 91 1011.0
20260507003209 44 200 3.0 0.0 0.00 0.00 0.00 91 1011.0
20260507000209 45 219 5.0 0.0 0.00 0.00 0.00 91 1010.9
20260506233209 45 215 5.0 0.0 0.00 0.00 0.00 91 1010.9
20260506230209 46 171 6.0 0.0 0.00 0.00 0.00 91 1010.8
20260506223209 46 198 5.0 0.0 0.00 0.00 0.00 91 1010.8
20260506220209 47 246 7.0 0.0 0.00 0.00 0.00 91 1010.6
20260506213209 47 178 5.0 0.0 0.00 0.00 0.26 90 1010.4
20260506210210 47 251 8.0 0.0 0.00 0.00 0.26 90 1010.2
20260506203210 48 206 9.0 0.0 0.00 0.00 0.26 90 1010.4
20260506200210 48 220 12.0 0.0 0.00 0.00 0.26 90 1010.1
20260506193215 48 283 8.0 0.0 0.00 0.00 0.26 89 1009.7
20260506190211 49 162 14.0 0.0 0.00 0.00 0.26 89 1009.2
20260506183209 50 236 5.0 0.0 0.00 0.00 0.26 90 1008.6
20260506180216 50 211 8.0 0.0 0.00 0.00 0.26 90 1008.8
20260506173210 50 180 11.0 0.0 0.00 0.00 0.26 90 1008.5
20260506170215 50 206 10.0 0.0 0.00 0.00 0.26 90 1008.0
20260506163210 50 254 15.0 0.0 0.00 0.00 0.25 89 1007.8
20260506160210 50 247 15.0 0.0 0.00 0.00 0.23 88 1007.7
20260506153210 53 267 23.0 0.0 0.00 0.00 0.16 85 1007.4
20260506150210 59 205 22.0 0.0 0.00 0.00 0.13 77 1006.4
20260506143210 64 265 6.0 0.0 0.00 0.00 0.00 60 1005.4